Tracking 35275 objects as of 8-Sep-2026
HD Live streaming from Space Station
objects crossing your sky now

STARLINK-3260

Track STARLINK-3260 now!
10-day predictions
STARLINK-3260 is classified as:


NORAD ID: 50205
Int'l Code: 2021-125BB
Launch date: December 18, 2021
Source: United States (US)
Launch site: AIR FORCE WESTERN TEST RANGE (AFWTR)
Your satellite tracking list
Your tracking list is empty




NASA's NSSDC Master Catalog

Two Line Element Set (TLE):
1 50205U 21125BB  26250.34829381  .00001123  00000-0  47945-4 0  9996
2 50205  53.1600 110.0458 0001062 101.0452 259.0669 15.31699914264625
Source of the keplerian elements: AFSPC